QPF
0.00 0.00 0.00 0.00 0.00 0.00 0.00 0.00 0.00 0.00 0.00 0.00 0.00 0.00 0.00 0.00 0.00 0.00 0.00 0.00 0.00 0.00 0.00 0.00 0.00 0.00 0.00 0.00 0.00 0.00 0.00 0.00 0.00 0.00 0.00 0.00 0.00 0.00
0.00 0.00 0.00 0.00 0.00 0.00 0.00 0.00 0.00 0.00 0.00 0.00 0.00 0.00 0.00 0.00 0.00 0.00 0.00 0.00 0.00 0.00 0.00 0.00 0.00 0.00 0.00 0.00 0.00 0.00 0.00 0.00 0.00 0.00 0.00 0.00 0.00 0.00
0.00 0.00 0.00 0.00 0.00 0.00 0.00 0.00 0.00 0.00 0.00 0.00 0.00 0.00 0.00 0.00 0.00 0.00 0.00 0.00 0.00 0.00 0.00 0.00 0.00 0.00 0.00 0.00 0.00 0.00 0.00 0.00 0.00 0.00 0.00 0.00 0.00 0.00
0.00 0.00 0.00 0.00 0.00 0.00 0.00 0.00 0.00 0.00 0.00 0.00 0.00 0.00 0.00 0.00 0.00 0.00 0.00 0.00 0.00 0.00 0.00 0.00 0.00 0.00 0.00 0.00 0.00 0.00 0.00 0.00 0.00 0.00 0.00 0.00 0.00 0.00
0.00 0.00 0.00 0.00 0.00 0.00 0.00 0.00 0.00 0.00 0.00 0.00 0.00 0.00 0.00 0.00 0.00 0.00 0.00 0.00 0.00 0.00 0.00 0.00 0.00 0.00 0.00 0.00 0.00 0.00 0.00 0.00 0.00 0.00 0.00 0.00 0.00 0.00
0.00 0.00 0.00 0.00 0.00 0.00 0.00 0.00 0.00 0.00 0.00 0.00 0.00 0.00 0.00 0.00 0.00 0.00 0.00 0.00 0.00 0.00 0.00 0.00 0.00 0.00 0.00 0.00 0.00 0.00 0.00 0.00 0.00 0.00 0.00 0.00 0.00 0.00
0.00 0.00 0.00 0.00 0.00 0.00 0.00 0.00 0.00 0.00 0.00 0.00 0.00 0.00 0.00 0.00 0.00 0.00 0.00 0.00 0.00 0.00 0.00 0.00 0.00 0.00 0.00 0.00 0.00 0.00 0.00 0.00 0.00 0.00 0.00 0.00 0.00 0.00
0.00 0.00 0.00 0.00 0.00 0.00 0.00 0.00 0.00 0.00 0.00 0.00 0.00 0.00 0.00 0.00 0.00 0.00 0.00 0.00 0.00 0.00 0.00 0.00 0.00 0.00 0.00 0.00 0.00 0.00 0.00 0.00 0.00 0.00 0.00 0.00 0.00 0.00
0.00 0.00 0.00 0.00 0.00 0.00 0.00 0.00 0.00 0.00 0.00 0.00 0.00 0.00 0.00 0.00 0.00 0.00 0.00 0.00 0.00 0.00 0.00 0.00 0.00 0.00 0.00 0.00 0.00 0.00 0.00 0.00 0.00 0.00 0.00 0.00 0.00 0.00
0.00 0.00 0.00 0.00 0.00 0.00 0.00 0.00 0.00 0.00 0.00 0.00 0.00 0.00 0.00 0.00 0.00 0.00 0.00 0.00 0.00 0.00 0.00 0.00 0.00 0.00 0.00 0.00 0.00 0.00 0.00 0.00 0.00 0.00 0.00 0.00 0.00 0.00
0.00 0.00 0.00 0.00 0.00 0.00 0.00 0.00 0.00 0.00 0.00 0.00 0.00 0.00 0.00 0.00 0.00 0.00 0.00 0.00 0.00 0.00 0.00 0.00 0.00 0.00 0.00 0.00 0.00 0.00 0.00 0.00 0.00 0.00 0.00 0.00 0.00 0.00
0.00 0.00 0.00 0.00 0.00 0.00 0.00 0.00 0.00 0.00 0.00 0.00 0.00 0.00 0.00 0.00 0.00 0.00 0.00 0.00 0.00 0.00 0.00 0.00 0.00 0.00 0.00 0.00 0.00 0.00 0.00 0.00 0.00 0.00 0.00 0.00 0.00 0.00
0.00 0.00 0.00 0.00 0.00 0.00 0.00 0.00 0.00 0.00 0.00 0.00 0.00 0.00 0.00 0.00 0.00 0.00 0.00 0.00 0.00 0.00 0.00 0.00 0.00 0.00 0.00 0.00 0.00 0.00 0.00 0.00 0.00 0.00 0.00 0.00 0.00 0.00
0.00 0.00 0.00 0.00 0.00 0.00 0.00 0.00 0.00 0.00 0.00 0.00 0.00 0.00 0.00 0.00 0.00 0.00 0.00 0.00 0.00 0.00 0.00 0.00 0.00 0.00 0.00 0.00 0.00 0.00 0.00 0.00 0.00 0.00 0.00 0.00 0.00 0.00
0.00 0.00 0.00 0.00 0.00 0.00 0.00 0.00 0.00 0.00 0.00 0.00 0.00 0.00 0.00 0.00 0.00 0.00 0.00 0.00 0.00 0.00 0.00 0.00 0.00 0.00 0.00 0.00 0.00 0.00 0.00 0.00 0.00 0.00 0.00 0.00 0.00 0.00
0.00 0.00 0.00 0.00 0.00 0.00 0.00 0.00 0.00 0.00 0.00 0.00 0.00 0.00 0.00 0.00 0.00 0.00 0.00 0.00 0.00 0.00 0.00 0.00 0.00 0.00 0.00 0.00 0.00 0.00 0.00 0.00 0.00 0.00 0.00 0.00 0.00 0.00
0.00 0.00 0.00 0.00 0.00 0.00 0.00 0.00 0.00 0.00 0.00 0.00 0.00 0.00 0.00 0.00 0.00 0.00 0.00 0.00 0.00 0.00 0.00 0.00 0.00 0.00 0.00 0.00 0.00 0.00 0.00 0.00 0.00 0.00 0.00 0.00 0.00 0.00
0.00 0.00 0.00 0.00 0.00 0.00 0.00 0.00 0.00 0.00 0.00 0.00 0.00 0.00 0.00 0.00 0.00 0.00 0.00 0.00 0.00 0.00 0.00 0.00 0.00 0.00 0.00 0.00 0.00 0.00 0.00 0.00 0.00 0.00 0.00 0.00 0.00 0.00
0.00 0.00 0.00 0.00 0.00 0.00 0.00 0.00 0.00 0.00 0.00 0.00 0.00 0.00 0.00 0.00 0.00 0.00 0.00 0.00 0.00 0.00 0.00 0.00 0.00 0.00 0.00 0.00 0.00 0.00 0.00 0.00 0.00 0.00 0.00 0.00 0.00 0.00
0.00 0.00 0.00 0.00 0.00 0.00 0.00 0.00 0.00 0.00 0.00 0.00 0.00 0.00 0.00 0.00 0.00 0.00 0.00 0.00 0.00 0.00 0.00 0.00 0.00 0.00 0.00 0.00 0.00 0.00 0.00 0.00 0.00 0.00 0.00 0.00 0.00 0.00
0.00 0.00 0.00 0.00 0.00 0.00 0.00 0.00 0.00 0.00 0.00 0.00 0.00 0.00 0.00 0.00 0.00 0.00 0.00 0.00 0.00 0.00 0.00 0.00 0.00 0.00 0.00 0.00 0.00 0.00 0.00 0.00 0.00 0.00 0.00 0.00 0.00 0.00
0.00 0.00 0.00 0.00 0.00 0.00 0.00 0.00 0.00 0.00 0.00 0.00 0.00 0.00 0.00 0.00 0.00 0.00 0.00 0.00 0.00 0.00 0.00 0.00 0.00 0.00 0.00 0.00 0.00 0.00 0.00 0.00 0.00 0.00 0.00 0.00 0.00 0.00
0.00 0.00 0.00 0.00 0.00 0.00 0.00 0.00 0.00 0.00 0.00 0.00 0.00 0.00 0.00 0.00 0.00 0.00 0.00 0.00 0.00 0.00 0.00 0.00 0.00 0.00 0.00 0.00 0.00 0.00 0.00 0.00 0.00 0.00 0.00 0.00 0.00 0.00
MSLP
1027.92 1028.26 1028.52 1028.65 1029.06 1029.16 1029.50 1029.58 1029.48 1030.19 1030.87 1031.98 1032.46 1033.31 1033.68 1034.06 1034.32 1034.70 1035.03 1035.58 1035.76 1035.99 1036.13 1036.22 1036.32 1036.24 1036.23 1036.20 1036.12 1036.05 1035.97 1035.72 1035.52 1035.38 1035.18 1034.93 1034.68 1034.21
1027.33 1027.79 1028.10 1028.17 1028.63 1028.80 1029.15 1029.29 1029.47 1029.35 1029.56 1030.77 1031.70 1032.34 1033.04 1033.45 1034.02 1034.32 1034.72 1035.34 1035.57 1035.69 1035.83 1036.03 1036.07 1036.16 1036.25 1036.31 1036.27 1036.17 1035.99 1035.98 1035.92 1035.73 1035.54 1035.25 1034.94 1034.68
1026.77 1027.19 1027.47 1027.78 1028.04 1028.43 1028.70 1028.99 1029.10 1029.29 1029.31 1030.83 1031.29 1032.16 1032.72 1032.98 1033.45 1033.95 1034.34 1034.61 1034.72 1035.39 1035.58 1035.67 1035.92 1036.07 1036.34 1036.48 1036.37 1036.24 1036.08 1035.92 1035.84 1035.72 1035.61 1035.45 1035.16 1034.86
1025.87 1026.55 1026.81 1027.39 1027.69 1028.07 1028.23 1028.55 1028.69 1029.03 1029.08 1029.85 1030.94 1031.79 1032.09 1032.64 1032.87 1033.22 1033.65 1033.97 1034.11 1034.70 1035.10 1035.35 1035.53 1035.69 1035.73 1035.66 1035.67 1035.57 1035.49 1035.46 1035.38 1035.34 1035.33 1035.30 1035.15 1034.90
1025.02 1025.59 1026.02 1026.64 1027.06 1027.56 1027.74 1028.09 1028.34 1028.78 1029.07 1029.38 1030.41 1031.29 1031.72 1032.22 1032.60 1032.98 1033.15 1033.47 1033.69 1034.09 1034.65 1034.75 1034.83 1034.99 1035.01 1035.06 1035.11 1035.13 1035.16 1035.01 1034.92 1034.91 1034.87 1034.76 1034.76 1034.68
1024.20 1024.64 1025.08 1025.70 1026.10 1026.82 1027.10 1027.42 1027.83 1028.30 1028.85 1029.05 1029.56 1030.31 1030.99 1031.68 1031.84 1032.05 1032.45 1032.64 1032.69 1033.17 1033.53 1033.55 1033.73 1033.96 1034.18 1034.30 1034.38 1034.40 1034.43 1034.34 1034.40 1034.40 1034.32 1034.42 1034.25 1034.18
1023.55 1023.90 1024.29 1024.83 1025.52 1025.88 1026.15 1026.69 1027.32 1027.81 1028.24 1028.52 1028.66 1029.07 1029.72 1030.66 1030.71 1031.04 1031.08 1031.33 1031.81 1032.11 1032.24 1032.17 1032.59 1032.77 1032.67 1033.24 1033.22 1033.35 1033.44 1033.52 1033.64 1033.74 1033.81 1033.82 1033.88 1033.89
1022.49 1023.22 1023.76 1024.97 1025.55 1026.19 1026.42 1026.52 1026.46 1026.88 1027.35 1027.69 1027.94 1027.87 1028.02 1028.90 1029.70 1030.01 1030.52 1030.60 1030.88 1030.91 1031.49 1031.09 1031.35 1031.13 1031.12 1031.23 1031.33 1031.75 1032.10 1032.52 1032.66 1032.81 1032.96 1032.94 1032.96 1033.07
1021.64 1022.38 1023.21 1023.87 1024.85 1025.13 1026.48 1026.81 1026.96 1027.14 1026.83 1026.98 1026.87 1027.15 1027.23 1027.44 1028.47 1029.20 1029.42 1029.44 1029.58 1030.48 1030.79 1030.15 1030.06 1030.19 1030.10 1030.04 1030.46 1030.72 1031.13 1031.39 1031.57 1031.76 1031.88 1032.19 1032.36 1032.33
1020.87 1021.60 1022.22 1023.01 1023.75 1024.44 1025.16 1025.81 1026.02 1026.39 1026.69 1026.79 1026.35 1026.27 1026.75 1026.90 1027.37 1027.86 1028.39 1028.76 1029.12 1029.91 1030.42 1029.75 1029.35 1029.35 1029.18 1029.11 1029.37 1029.76 1030.18 1030.44 1030.61 1030.70 1030.89 1031.09 1031.33 1031.42
1020.40 1020.98 1021.60 1022.32 1022.90 1024.15 1024.45 1024.86 1025.28 1025.60 1026.43 1026.69 1026.96 1026.99 1027.08 1027.17 1027.10 1027.87 1028.32 1028.67 1028.72 1028.96 1029.65 1029.73 1029.12 1029.11 1028.83 1028.53 1028.41 1028.86 1029.42 1029.49 1029.62 1029.88 1030.14 1030.23 1030.47 1030.74
1019.95 1020.45 1020.96 1021.55 1022.43 1023.50 1023.72 1024.09 1024.33 1024.35 1025.36 1026.01 1026.12 1026.72 1027.06 1027.16 1027.38 1026.91 1027.25 1027.65 1028.07 1028.49 1028.51 1029.16 1029.01 1029.08 1028.55 1028.19 1028.16 1028.14 1028.28 1028.71 1028.93 1029.06 1029.10 1029.34 1029.68 1029.72
1018.92 1019.70 1020.14 1021.05 1021.95 1022.54 1022.56 1023.05 1023.19 1023.74 1024.52 1024.90 1025.21 1025.51 1025.77 1026.00 1026.57 1026.78 1026.48 1026.80 1027.02 1027.10 1027.64 1028.02 1028.27 1028.51 1028.39 1027.92 1027.53 1027.39 1027.50 1027.70 1027.76 1027.87 1028.24 1028.37 1028.45 1028.44
1017.98 1018.60 1019.24 1020.14 1021.17 1021.88 1022.53 1022.37 1023.30 1023.95 1024.22 1024.53 1024.54 1024.61 1024.83 1025.09 1025.41 1025.68 1025.80 1026.07 1026.10 1026.06 1026.60 1027.05 1027.31 1027.49 1027.41 1027.16 1026.83 1026.54 1026.74 1026.73 1026.88 1026.69 1026.79 1026.91 1027.09 1027.20
1017.34 1017.77 1018.53 1019.29 1020.32 1021.09 1021.48 1022.24 1023.17 1023.28 1023.38 1023.51 1023.60 1023.72 1023.91 1024.11 1024.61 1025.12 1025.38 1025.50 1025.67 1025.76 1026.06 1026.29 1026.32 1026.78 1026.88 1026.55 1026.20 1026.04 1025.96 1025.44 1025.76 1025.94 1025.93 1025.82 1025.69 1025.81
1017.30 1018.08 1018.61 1019.29 1019.88 1020.43 1021.29 1021.93 1022.13 1022.29 1022.25 1022.20 1022.54 1022.84 1023.14 1023.88 1024.08 1024.42 1024.64 1025.03 1025.24 1025.00 1025.15 1025.55 1025.66 1025.83 1025.90 1025.88 1025.79 1025.28 1025.22 1025.19 1024.62 1024.75 1024.96 1024.96 1024.75 1024.51
1017.44 1018.18 1018.74 1019.20 1019.32 1019.58 1020.29 1020.60 1021.23 1021.53 1021.49 1021.74 1021.97 1022.18 1022.44 1022.67 1022.88 1023.29 1023.77 1023.91 1023.93 1023.75 1023.98 1024.52 1024.83 1024.83 1024.90 1025.03 1024.76 1024.43 1024.07 1023.92 1023.74 1023.67 1023.66 1023.16 1022.88 1022.64
1016.90 1017.37 1017.79 1018.43 1018.82 1018.74 1019.32 1020.04 1020.29 1020.72 1020.84 1020.91 1021.02 1021.17 1021.48 1021.74 1021.89 1022.30 1022.82 1022.92 1022.77 1022.73 1022.65 1022.78 1023.58 1024.32 1024.68 1024.17 1024.10 1023.23 1022.55 1022.31 1022.26 1022.40 1022.33 1021.96 1021.33 1021.03
1015.95 1016.30 1017.10 1017.08 1018.09 1018.39 1018.37 1018.97 1019.41 1019.41 1019.72 1020.24 1020.17 1020.10 1020.29 1020.62 1021.14 1021.27 1021.50 1021.72 1021.80 1021.71 1021.70 1021.94 1022.41 1022.71 1022.52 1021.98 1021.60 1021.98 1021.17 1020.64 1020.82 1020.90 1021.06 1020.89 1020.44 1019.96
1015.92 1016.34 1016.02 1016.39 1017.41 1017.80 1018.01 1018.00 1018.93 1018.79 1019.00 1019.36 1019.25 1019.46 1019.49 1019.67 1020.05 1020.16 1020.37 1020.38 1020.32 1020.36 1020.54 1020.69 1020.96 1021.29 1020.58 1019.87 1020.00 1020.08 1020.87 1020.25 1020.03 1019.58 1019.60 1019.61 1019.09 1019.09
1015.68 1015.63 1016.05 1016.58 1016.66 1016.91 1017.11 1017.34 1017.74 1017.61 1018.23 1018.48 1018.41 1018.68 1018.68 1018.85 1019.03 1019.22 1019.23 1019.33 1019.39 1019.52 1019.29 1019.33 1019.35 1019.94 1019.89 1019.77 1019.70 1019.20 1019.43 1019.53 1019.29 1019.14 1018.71 1018.55 1018.21 1017.81
1015.77 1015.97 1016.16 1016.07 1015.94 1016.44 1016.79 1016.89 1016.92 1017.21 1017.51 1017.67 1017.59 1017.62 1017.81 1018.22 1018.38 1018.46 1018.60 1018.66 1018.56 1018.71 1018.53 1018.49 1018.84 1019.39 1019.56 1019.20 1018.55 1018.20 1018.27 1018.21 1017.82 1017.79 1017.84 1017.67 1016.98 1016.04
1015.62 1015.78 1015.80 1015.72 1015.67 1015.95 1016.38 1016.79 1016.45 1016.83 1017.05 1017.04 1017.18 1017.29 1017.53 1017.68 1017.67 1017.88 1018.10 1018.26 1018.13 1018.16 1018.17 1018.21 1018.36 1018.55 1018.45 1018.31 1018.13 1017.62 1017.28 1016.98 1016.66 1016.60 1016.37 1016.26 1016.18 1015.60
Thickness
5593 5591 5590 5589 5585 5582 5579 5578 5578 5571 5566 5554 5550 5541 5535 5530 5525 5518 5511 5506 5501 5495 5489 5484 5478 5474 5469 5464 5458 5451 5445 5440 5435 5429 5424 5418 5413 5409
5593 5589 5588 5588 5585 5582 5579 5577 5574 5575 5575 5561 5552 5545 5538 5532 5525 5518 5511 5505 5500 5495 5490 5483 5478 5472 5467 5461 5455 5449 5444 5437 5430 5426 5421 5416 5411 5405
5593 5589 5588 5585 5584 5581 5578 5576 5575 5571 5571 5555 5551 5544 5537 5532 5526 5519 5512 5506 5501 5495 5489 5484 5477 5470 5463 5457 5452 5447 5442 5438 5431 5426 5420 5415 5410 5405
5595 5590 5589 5584 5582 5579 5578 5575 5573 5569 5568 5562 5550 5542 5539 5531 5526 5521 5514 5508 5502 5496 5489 5483 5477 5471 5467 5462 5457 5452 5446 5440 5436 5429 5422 5416 5410 5405
5596 5592 5589 5585 5583 5579 5577 5574 5571 5567 5564 5561 5550 5541 5536 5530 5524 5519 5514 5508 5502 5497 5490 5484 5480 5474 5469 5464 5459 5454 5447 5443 5438 5431 5426 5421 5414 5408
5596 5594 5592 5586 5585 5579 5577 5575 5571 5567 5561 5559 5553 5544 5537 5530 5525 5522 5516 5511 5506 5499 5493 5488 5483 5478 5472 5467 5462 5457 5451 5446 5439 5433 5428 5422 5418 5412
5594 5592 5591 5588 5585 5581 5579 5576 5570 5566 5560 5557 5556 5550 5542 5531 5529 5525 5523 5518 5510 5502 5497 5494 5486 5481 5478 5472 5466 5461 5456 5450 5443 5436 5429 5423 5418 5412
5597 5592 5589 5585 5581 5578 5575 5572 5570 5568 5562 5559 5555 5554 5552 5540 5531 5527 5520 5517 5511 5507 5498 5498 5490 5488 5484 5480 5476 5469 5462 5454 5447 5440 5434 5428 5422 5416
5597 5593 5589 5584 5580 5576 5569 5566 5565 5562 5560 5558 5557 5551 5550 5547 5535 5526 5522 5520 5516 5505 5500 5499 5496 5490 5487 5483 5479 5473 5466 5459 5453 5445 5439 5431 5424 5419
5598 5594 5591 5587 5581 5576 5571 5564 5562 5558 5554 5551 5551 5551 5544 5542 5537 5530 5524 5518 5512 5504 5498 5498 5497 5493 5489 5485 5482 5475 5469 5462 5456 5450 5443 5437 5430 5423
5594 5591 5590 5587 5581 5573 5571 5565 5561 5556 5552 5550 5545 5541 5540 5536 5533 5524 5516 5511 5509 5506 5498 5494 5493 5491 5489 5486 5481 5477 5469 5464 5458 5451 5444 5438 5431 5424
5589 5587 5585 5586 5579 5570 5569 5564 5562 5560 5551 5546 5541 5536 5533 5528 5526 5524 5518 5513 5508 5500 5499 5492 5487 5484 5486 5485 5480 5476 5470 5465 5458 5452 5446 5439 5431 5425
5588 5584 5585 5578 5573 5569 5567 5566 5561 5554 5549 5546 5540 5533 5530 5526 5521 5519 5517 5511 5507 5505 5498 5491 5486 5480 5480 5481 5478 5474 5469 5463 5459 5453 5446 5439 5434 5430
5587 5584 5582 5574 5568 5564 5560 5561 5553 5546 5542 5537 5535 5531 5527 5523 5520 5517 5514 5508 5506 5503 5497 5490 5484 5479 5479 5479 5476 5474 5466 5462 5458 5454 5449 5444 5437 5432
5584 5581 5575 5569 5563 5560 5559 5554 5547 5543 5539 5535 5532 5529 5524 5521 5515 5510 5507 5504 5500 5497 5492 5487 5482 5475 5472 5473 5474 5469 5463 5462 5456 5450 5445 5444 5438 5431
5570 5566 5562 5558 5557 5556 5550 5547 5544 5539 5536 5535 5530 5525 5519 5511 5509 5504 5503 5496 5494 5493 5488 5483 5477 5471 5469 5467 5464 5464 5458 5454 5454 5448 5443 5439 5436 5432
5556 5551 5548 5550 5552 5552 5547 5545 5537 5533 5530 5526 5522 5519 5515 5510 5507 5502 5497 5495 5493 5492 5486 5477 5472 5469 5465 5461 5462 5459 5456 5454 5449 5445 5442 5444 5440 5438
5546 5546 5547 5543 5542 5544 5539 5531 5530 5525 5523 5520 5518 5516 5511 5506 5503 5498 5493 5490 5490 5487 5484 5479 5469 5460 5454 5458 5452 5455 5459 5456 5449 5442 5440 5441 5441 5437
5548 5546 5541 5541 5537 5533 5530 5525 5522 5520 5517 5512 5512 5511 5508 5503 5497 5493 5490 5486 5483 5481 5477 5470 5463 5459 5459 5461 5462 5453 5456 5454 5447 5442 5435 5433 5434 5433
5535 5533 5537 5536 5526 5521 5518 5519 5511 5511 5509 5506 5505 5502 5501 5497 5491 5489 5484 5482 5482 5479 5473 5467 5460 5451 5453 5459 5459 5457 5442 5439 5437 5439 5434 5428 5428 5426
5522 5525 5521 5517 5517 5514 5511 5507 5505 5506 5500 5498 5497 5494 5492 5489 5486 5482 5480 5474 5471 5469 5469 5463 5457 5447 5443 5442 5443 5446 5438 5431 5427 5424 5425 5423 5422 5423
5506 5506 5504 5504 5506 5503 5501 5498 5498 5495 5492 5489 5489 5487 5484 5479 5475 5472 5468 5465 5464 5459 5459 5454 5445 5435 5430 5430 5435 5434 5430 5425 5422 5418 5415 5413 5417 5423
5493 5491 5491 5493 5494 5494 5490 5483 5485 5481 5479 5478 5475 5473 5468 5465 5464 5460 5453 5450 5450 5446 5443 5437 5431 5425 5422 5418 5417 5419 5420 5418 5416 5413 5411 5404 5401 5404